Location: Proctor
(47.8934°N, 114.3048°W)
Time: 16:21:28
(UTC+00:00)

Courier 1B Rocket - Pass Details

Date: 13 June 2024
Orbit: 920 x 1201 km, 28.2° (Epoch: 16 July)

Event Time Altitude Azimuth Distance (km) Brightness Sun altitude
Rises 16:21:35 0° 241° (WSW) 4,066 7.9 44.2°
Reaches altitude 10° 16:25:42 10° 221° (SW) 3,122 7.6 44.9°
Maximum altitude 16:30:03 16° 187° (S) 2,697 7.6 45.6°
Drops below altitude 10° 16:34:24 10° 153° (SSE) 3,117 8.3 46.3°
Sets 16:38:31 0° 133° (SE) 4,056 8.8 46.9°
